FW0014 Weather Reports


time (UTC)temp
C
wind
direction
speed
KPH
gust
KPH
rain 1hr
cm
rain 24hr
cm
rain mn
cm
humidity
%
barometer
mb
20260901150319 27 246 0.0 0.0 0.00 0.00 0.00 73 1019.6
20260901150107 27 247 0.0 0.0 0.00 0.00 0.00 73 1016.6
20260901145851 27 188 0.0 0.0 0.00 0.00 0.00 73 1019.6
20260901145533 27 183 0.0 0.0 0.00 0.00 0.00 74 1016.7
20260901145330 27 168 0.0 0.0 0.00 0.00 0.00 74 1019.6
20260901145014 27 244 0.0 0.0 0.00 0.00 0.00 76 1016.8
20260901144829 27 243 0.0 0.0 0.00 0.00 0.00 76 1019.6
20260901144507 26 255 0.0 0.0 0.00 0.00 0.00 76 1016.7
20260901144326 27 259 0.0 0.0 0.00 0.00 0.00 76 1019.7
20260901144101 26 232 0.0 0.0 0.00 0.00 0.00 76 1016.8
20260901143844 26 267 0.0 0.0 0.00 0.00 0.00 77 1019.7
20260901143531 26 237 0.0 0.0 0.00 0.00 0.00 77 1016.8
20260901143322 26 239 0.0 0.0 0.00 0.00 0.00 77 1019.7
20260901143023 26 212 0.0 0.0 0.00 0.00 0.00 77 1016.7
20260901142819 26 212 0.0 0.0 0.00 0.00 0.00 77 1019.8
20260901142504 26 213 0.0 0.0 0.00 0.00 0.00 77 1016.8
20260901142316 26 213 0.0 0.0 0.00 0.00 0.00 78 1019.8
20260901142057 26 199 0.0 0.0 0.00 0.00 0.00 78 1016.9
20260901141853 26 241 0.0 0.0 0.00 0.00 0.00 79 1019.8
20260901141517 26 222 0.0 0.0 0.00 0.00 0.00 79 1016.9
20260901141351 26 222 0.0 0.0 0.00 0.00 0.00 79 1019.7
20260901141049 25 224 0.0 0.0 0.00 0.00 0.00 79 1016.9
20260901140829 26 224 0.0 0.0 0.00 0.00 0.00 79 1019.8
20260901140540 25 224 0.0 0.0 0.00 0.00 0.00 80 1017.0
20260901140326 25 224 0.0 0.0 0.00 0.00 0.00 80 1019.7
20260901140042 25 224 0.0 0.0 0.00 0.00 0.00 80 1016.8
20260901135822 25 261 0.0 0.0 0.00 0.00 0.00 81 1019.7
20260901135555 25 261 0.0 0.0 0.00 0.00 0.00 81 1016.8
20260901135339 25 261 0.0 0.0 0.00 0.00 0.00 81 1019.7
20260901135042 25 261 0.0 0.0 0.00 0.00 0.00 81 1016.7
20260901134831 25 261 0.0 0.0 0.00 0.00 0.00 81 1019.7
20260901134537 24 261 0.0 0.0 0.00 0.00 0.00 81 1016.7
20260901134329 25 261 0.0 0.0 0.00 0.00 0.00 82 1019.6
20260901134019 24 208 0.0 0.0 0.00 0.00 0.00 82 1016.7
20260901133844 24 208 0.0 0.0 0.00 0.00 0.00 82 1019.7
20260901133547 24 208 0.0 0.0 0.00 0.00 0.00 82 1016.6
20260901133323 24 208 0.0 0.0 0.00 0.00 0.00 83 1019.5
20260901133046 23 208 0.0 0.0 0.00 0.00 0.00 83 1016.6
20260901132820 23 208 0.0 0.0 0.00 0.00 0.00 83 1019.5
20260901132529 23 208 0.0 0.0 0.00 0.00 0.00 83 1016.7
20260901132317 23 208 0.0 0.0 0.00 0.00 0.00 83 1019.5
20260901132021 23 208 0.0 1.6 0.00 0.00 0.00 83 1016.7
20260901131814 23 208 0.0 1.6 0.00 0.00 0.00 83 1019.6
20260901131548 23 208 0.0 1.6 0.00 0.00 0.00 83 1016.7
20260901131330 23 208 0.0 1.6 0.00 0.00 0.00 83 1019.5
20260901131042 22 208 0.0 1.6 0.00 0.00 0.00 83 1016.6
20260901130828 23 208 0.0 1.6 0.00 0.00 0.00 83 1019.5
20260901130538 22 208 0.0 1.6 0.00 0.00 0.00 83 1016.5
20260901130325 22 208 0.0 0.0 0.00 0.00 0.00 83 1019.4
20260901130043 22 208 0.0 0.0 0.00 0.00 0.00 82 1016.4
20260901125825 22 208 0.0 0.0 0.00 0.00 0.00 82 1019.2
20260901125530 22 208 0.0 1.6 0.00 0.00 0.00 82 1016.4
20260901125321 22 208 0.0 1.6 0.00 0.00 0.00 82 1019.2
20260901125056 22 208 0.0 1.6 0.00 0.00 0.00 82 1016.2
20260901124819 22 208 0.0 1.6 0.00 0.00 0.00 82 1019.1
20260901124547 22 208 0.0 3.2 0.00 0.00 0.00 82 1016.2
20260901124317 22 208 0.0 3.2 0.00 0.00 0.00 82 1019.1
20260901124040 22 208 0.0 3.2 0.00 0.00 0.00 83 1016.2
20260901123816 22 208 1.6 3.2 0.00 0.00 0.00 83 1019.1
20260901123533 22 208 0.0 3.2 0.00 0.00 0.00 83 1016.2
20260901123318 22 208 0.0 3.2 0.00 0.00 0.00 83 1019.2
20260901123027 22 208 0.0 3.2 0.00 0.00 0.00 82 1016.2
20260901122815 22 208 0.0 3.2 0.00 0.00 0.00 82 1019.0
20260901122511 22 208 0.0 1.6 0.00 0.00 0.00 82 1016.0
20260901122332 22 208 0.0 1.6 0.00 0.00 0.00 82 1018.9
20260901122007 22 208 0.0 0.0 0.00 0.00 0.00 82 1015.8
20260901121846 22 208 0.0 0.0 0.00 0.00 0.00 82 1018.7
20260901121537 22 208 0.0 3.2 0.00 0.00 0.00 81 1015.8
20260901121324 22 208 0.0 3.2 0.00 0.00 0.00 81 1018.7
20260901121031 22 208 0.0 3.2 0.00 0.00 0.00 81 1015.7
20260901120823 22 208 1.6 3.2 0.00 0.00 0.00 81 1018.7
20260901120525 22 208 0.0 3.2 0.00 0.00 0.00 81 1015.8
20260901120340 22 208 1.6 3.2 0.00 0.00 0.00 81 1018.8
20260901120055 22 208 1.6 3.2 0.00 0.00 0.00 81 1015.8
20260901115817 22 208 1.6 3.2 0.00 0.00 0.00 80 1018.8
20260901115540 22 208 0.0 3.2 0.00 0.00 0.00 80 1015.8
20260901115313 23 208 1.6 3.2 0.00 0.00 0.00 80 1018.6
20260901115035 22 208 1.6 3.2 0.00 0.00 0.00 80 1015.7
20260901114850 23 208 0.0 1.6 0.00 0.00 0.00 80 1018.6
20260901114601 22 208 0.0 0.0 0.00 0.00 0.00 80 1015.7
20260901114329 23 208 0.0 0.0 0.00 0.00 0.00 81 1018.6
20260901114050 22 208 0.0 0.0 0.00 0.00 0.00 80 1015.7
20260901113829 23 208 0.0 0.0 0.00 0.00 0.00 80 1018.7
20260901113541 23 208 0.0 3.2 0.00 0.00 0.00 79 1015.6
20260901113329 23 208 0.0 3.2 0.00 0.00 0.00 79 1018.7
20260901113033 23 208 0.0 3.2 0.00 0.00 0.00 80 1015.7
20260901112826 23 208 1.6 3.2 0.00 0.00 0.00 80 1018.6
20260901112556 23 208 0.0 3.2 0.00 0.00 0.00 80 1015.7
20260901112325 23 208 1.6 3.2 0.00 0.00 0.00 80 1018.7
20260901112048 23 208 0.0 3.2 0.00 0.00 0.00 80 1015.7
20260901111823 23 208 0.0 3.2 0.00 0.00 0.00 79 1018.6
20260901111546 23 208 0.0 3.2 0.00 0.00 0.00 79 1015.6
20260901111321 23 208 0.0 3.2 0.00 0.00 0.00 80 1018.5
20260901111035 23 208 0.0 3.2 0.00 0.00 0.00 80 1015.7
20260901110820 23 208 1.6 3.2 0.00 0.00 0.00 80 1018.6
20260901110526 23 208 0.0 3.2 0.00 0.00 0.00 79 1015.6
20260901110317 23 208 1.6 3.2 0.00 0.00 0.00 79 1018.5
20260901110019 23 208 0.0 3.2 0.00 0.00 0.00 79 1015.6
20260901105815 23 208 0.0 3.2 0.00 0.00 0.00 79 1018.6
20260901105505 23 208 0.0 3.2 0.00 0.00 0.00 79 1015.6
20260901105314 23 208 1.6 3.2 0.00 0.00 0.00 79 1018.6
20260901105101 23 208 1.6 3.2 0.00 0.00 0.00 79 1015.7
20260901104831 23 208 1.6 3.2 0.00 0.00 0.00 78 1018.6
20260901104554 23 208 1.6 3.2 0.00 0.00 0.00 78 1015.7
20260901104327 23 208 1.6 3.2 0.00 0.00 0.00 78 1018.7
20260901104041 23 208 1.6 4.8 0.00 0.00 0.00 78 1015.7
20260901103823 24 208 1.6 4.8 0.00 0.00 0.00 78 1018.7
20260901103506 23 208 1.6 4.8 0.00 0.00 0.00 77 1015.6
20260901103340 24 208 3.2 4.8 0.00 0.00 0.00 77 1018.5
20260901103037 24 208 3.2 4.8 0.00 0.00 0.00 77 1015.5
20260901102816 24 208 4.8 4.8 0.00 0.00 0.00 77 1018.4
20260901102530 24 208 0.0 3.2 0.00 0.00 0.00 77 1015.4
20260901102333 25 208 0.0 3.2 0.00 0.00 0.00 76 1018.3
20260901102011 24 208 0.0 9.7 0.00 0.00 0.00 76 1015.3
20260901101830 25 208 1.6 9.7 0.00 0.00 0.00 76 1018.3
20260901101502 24 208 1.6 9.7 0.00 0.00 0.00 76 1015.3
20260901101326 25 208 4.8 9.7 0.00 0.00 0.00 76 1018.3
20260901101058 24 210 3.2 8.0 0.00 0.00 0.00 76 1015.4
20260901100823 25 217 4.8 8.0 0.00 0.00 0.00 76 1018.4
20260901100548 24 216 4.8 8.0 0.00 0.00 0.00 76 1015.4
20260901100321 25 223 4.8 9.7 0.00 0.00 0.00 76 1018.3
20260901100043 24 219 4.8 9.7 0.00 0.00 0.00 76 1015.4
20260901095838 25 216 4.8 9.7 0.00 0.00 0.00 76 1018.4
20260901095513 25 214 4.8 8.0 0.00 0.00 0.00 76 1015.5
20260901095314 25 207 6.4 8.0 0.00 0.00 0.00 75 1018.4
20260901095058 25 220 3.2 8.0 0.00 0.00 0.00 75 1015.4
20260901094833 25 218 4.8 8.0 0.00 0.00 0.00 75 1018.2
20260901094551 25 218 4.8 9.7 0.00 0.00 0.00 75 1015.2
20260901094330 25 213 4.8 9.7 0.00 0.00 0.00 75 1018.3
20260901094041 25 182 4.8 9.7 0.00 0.00 0.00 75 1015.4
20260901093829 25 187 4.8 6.4 0.00 0.00 0.00 75 1018.3
20260901093537 25 187 3.2 6.4 0.00 0.00 0.00 75 1015.4
20260901093327 25 187 4.8 8.0 0.00 0.00 0.00 75 1018.4
20260901093022 25 187 3.2 9.7 0.00 0.00 0.00 75 1015.4
20260901092825 25 187 4.8 9.7 0.00 0.00 0.00 75 1018.5
20260901092502 25 187 4.8 9.7 0.00 0.00 0.00 75 1015.6
20260901092322 25 186 4.8 8.0 0.00 0.00 0.00 75 1018.5
20260901092059 25 186 4.8 8.0 0.00 0.00 0.00 75 1015.6
20260901091821 25 186 4.8 8.0 0.00 0.00 0.00 75 1018.6
20260901091547 25 186 4.8 8.0 0.00 0.00 0.00 75 1015.6
20260901091319 25 186 4.8 8.0 0.00 0.00 0.00 75 1018.6
20260901091036 25 183 3.2 8.0 0.00 0.00 0.00 74 1015.6
20260901090816 25 186 4.8 8.0 0.00 0.00 0.00 74 1018.5
20260901090528 25 189 4.8 8.0 0.00 0.00 0.00 74 1015.6
20260901090314 26 191 3.2 9.7 0.00 0.00 0.00 74 1018.7
20260901090012 25 167 4.8 9.7 0.00 0.00 0.00 74 1015.7
20260901085831 26 191 4.8 9.7 0.00 0.00 0.00 74 1018.7
20260901085503 25 191 6.4 9.7 0.00 0.00 0.00 74 1015.7
20260901085348 26 191 4.8 9.7 0.00 0.00 0.00 74 1018.7
20260901085034 25 209 4.8 9.7 0.00 0.00 0.00 74 1015.7
20260901084825 26 195 6.4 12.9 0.00 0.00 0.00 74 1018.6
20260901084524 26 194 3.2 12.9 0.00 0.00 0.00 74 1015.7
20260901084323 26 208 4.8 12.9 0.00 0.00 0.00 74 1018.7
20260901084006 26 204 3.2 8.0 0.00 0.00 0.00 74 1015.8
20260901083822 26 204 4.8 9.7 0.00 0.00 0.00 74 1018.7
20260901083600 26 178 3.2 9.7 0.00 0.00 0.00 74 1015.7
20260901083321 26 174 3.2 9.7 0.00 0.00 0.00 74 1018.6
20260901083051 26 174 4.8 9.7 0.00 0.00 0.00 74 1015.7
20260901082818 26 183 4.8 9.7 0.00 0.00 0.00 74 1018.6
20260901082542 26 192 4.8 9.7 0.00 0.00 0.00 74 1015.6
20260901082315 26 193 4.8 9.7 0.00 0.00 0.00 74 1018.5
20260901082035 26 193 4.8 9.7 0.00 0.00 0.00 74 1015.5
20260901081814 26 193 4.8 9.7 0.00 0.00 0.00 74 1018.5
20260901081516 26 193 3.2 9.7 0.00 0.00 0.00 73 1015.4
20260901081329 26 193 4.8 9.7 0.00 0.00 0.00 73 1018.4
20260901081006 26 193 4.8 11.3 0.00 0.00 0.00 73 1015.4
20260901080826 26 179 4.8 11.3 0.00 0.00 0.00 73 1018.3
20260901080601 26 205 4.8 11.3 0.00 0.00 0.00 73 1015.3
20260901080324 26 196 6.4 11.3 0.00 0.00 0.00 73 1018.3
20260901080052 26 195 4.8 16.1 0.00 0.00 0.00 73 1015.3
20260901075821 26 195 4.8 16.1 0.00 0.00 0.00 73 1018.2
20260901075545 26 181 6.4 16.1 0.00 0.00 0.00 73 1015.3
20260901075318 26 183 9.7 16.1 0.00 0.00 0.00 73 1018.2
20260901075036 26 177 8.0 16.1 0.00 0.00 0.00 73 1015.3
20260901074816 27 185 9.7 16.1 0.00 0.00 0.00 73 1018.2
20260901074518 26 172 8.0 14.5 0.00 0.00 0.00 72 1015.2
20260901074353 27 204 9.7 14.5 0.00 0.00 0.00 72 1018.1
20260901074054 26 242 8.0 14.5 0.00 0.00 0.00 72 1015.1
20260901073829 27 181 8.0 14.5 0.00 0.00 0.00 72 1018.1
20260901073540 26 199 8.0 17.7 0.00 0.00 0.00 72 1015.3
20260901073346 27 179 8.0 17.7 0.00 0.00 0.00 72 1018.2
20260901073003 27 201 9.7 19.3 0.00 0.00 0.00 72 1015.2
20260901072822 27 183 9.7 17.7 0.00 0.00 0.00 72 1018.1
20260901072556 27 195 9.7 17.7 0.00 0.00 0.00 71 1015.1
20260901072340 27 202 11.3 17.7 0.00 0.00 0.00 71 1018.1
20260901072045 27 201 11.3 19.3 0.00 0.00 0.00 71 1015.2
20260901071831 27 171 12.9 19.3 0.00 0.00 0.00 71 1018.3
20260901071534 27 193 8.0 17.7 0.00 0.00 0.00 71 1015.3
20260901071351 27 204 11.3 17.7 0.00 0.00 0.00 71 1018.2
20260901071056 27 197 9.7 20.9 0.00 0.00 0.00 71 1015.3
20260901070827 27 181 11.3 20.9 0.00 0.00 0.00 71 1018.2
20260901070553 27 187 11.3 20.9 0.00 0.00 0.00 71 1015.3
20260901070325 27 179 9.7 16.1 0.00 0.00 0.00 71 1018.2
20260901070050 27 166 9.7 16.1 0.00 0.00 0.00 71 1015.3
20260901065823 27 202 9.7 16.1 0.00 0.00 0.00 71 1018.2
20260901065546 27 231 6.4 16.1 0.00 0.00 0.00 70 1015.2
20260901065321 27 166 11.3 16.1 0.00 0.00 0.00 70 1018.2
20260901065040 27 194 9.7 14.5 0.00 0.00 0.00 70 1015.3
20260901064840 27 198 9.7 14.5 0.00 0.00 0.00 70 1018.3
20260901064532 27 186 6.4 16.1 0.00 0.00 0.00 70 1015.3
20260901064331 27 187 8.0 16.1 0.00 0.00 0.00 70 1018.1
20260901064016 27 197 6.4 16.1 0.00 0.00 0.00 69 1015.2
20260901063830 27 168 6.4 16.1 0.00 0.00 0.00 69 1018.2
20260901063511 27 200 4.8 14.5 0.00 0.00 0.00 69 1015.2
20260901063327 27 172 6.4 14.5 0.00 0.00 0.00 69 1018.2
20260901063104 27 179 8.0 12.9 0.00 0.00 0.00 69 1015.2
20260901062823 27 161 8.0 16.1 0.00 0.00 0.00 68 1018.1
20260901062537 27 157 8.0 16.1 0.00 0.00 0.00 68 1015.1
20260901062321 27 157 9.7 16.1 0.00 0.00 0.00 68 1018.1
20260901062028 27 174 11.3 16.1 0.00 0.00 0.00 67 1015.1
20260901061817 27 156 9.7 17.7 0.00 0.00 0.00 67 1018.1
20260901061522 27 170 8.0 14.5 0.00 0.00 0.00 66 1015.1
20260901061337 27 188 9.7 14.5 0.00 0.00 0.00 66 1018.1
20260901061013 27 161 8.0 14.5 0.00 0.00 0.00 66 1015.1
20260901060830 27 186 9.7 14.5 0.00 0.00 0.00 66 1018.1
20260901060556 27 184 8.0 14.5 0.00 0.00 0.00 65 1015.0
20260901060327 27 185 8.0 14.5 0.00 0.00 0.00 65 1018.0
20260901060050 27 193 8.0 14.5 0.00 0.00 0.00 65 1014.9
20260901055822 27 170 8.0 16.1 0.00 0.00 0.00 64 1017.8
20260901055526 27 191 11.3 16.1 0.00 0.00 0.00 64 1014.9
20260901055320 27 152 11.3 16.1 0.00 0.00 0.00 64 1017.9
20260901055020 27 166 11.3 16.1 0.00 0.00 0.00 64 1014.9
20260901054818 27 179 11.3 14.5 0.00 0.00 0.00 63 1017.9
20260901054510 27 166 8.0 16.1 0.00 0.00 0.00 63 1014.8
20260901054336 27 169 9.7 16.1 0.00 0.00 0.00 62 1017.8
20260901054038 27 162 9.7 16.1 0.00 0.00 0.00 62 1015.0
20260901053814 27 156 8.0 14.5 0.00 0.00 0.00 62 1017.9
20260901053530 27 158 9.7 14.5 0.00 0.00 0.00 62 1015.0
20260901053331 27 139 9.7 14.5 0.00 0.00 0.00 61 1017.9
20260901053013 27 141 8.0 14.5 0.00 0.00 0.00 61 1015.0
20260901052850 27 173 9.7 14.5 0.00 0.00 0.00 61 1017.9
20260901052545 27 149 9.7 12.9 0.00 0.00 0.00 61 1014.9
20260901052326 27 162 9.7 11.3 0.00 0.00 0.00 61 1017.8
20260901052040 27 168 6.4 14.5 0.00 0.00 0.00 61 1014.9
20260901051824 27 158 8.0 14.5 0.00 0.00 0.00 61 1017.7
20260901051538 27 169 3.2 14.5 0.00 0.00 0.00 61 1014.9
20260901051322 27 187 8.0 14.5 0.00 0.00 0.00 61 1017.7
20260901051025 26 158 8.0 14.5 0.00 0.00 0.00 61 1014.7
20260901050820 27 157 6.4 11.3 0.00 0.00 0.00 61 1017.6
20260901050517 26 188 6.4 12.9 0.00 0.00 0.00 61 1014.8
20260901050337 27 172 8.0 12.9 0.00 0.00 0.00 61 1017.7
20260901050044 26 152 8.0 12.9 0.00 0.00 0.00 61 1014.7
20260901045817 26 157 9.7 11.3 0.00 0.00 0.00 61 1017.6
20260901045602 26 150 4.8 11.3 0.00 0.00 0.00 61 1014.7
20260901045333 26 162 6.4 11.3 0.00 0.00 0.00 61 1017.6
20260901045034 26 177 4.8 9.7 0.00 0.00 0.00 61 1014.8
20260901044851 26 171 6.4 9.7 0.00 0.00 0.00 61 1017.6
20260901044606 26 166 6.4 9.7 0.00 0.00 0.00 61 1014.8
20260901044330 26 151 6.4 9.7 0.00 0.00 0.00 61 1017.5
20260901044044 26 181 6.4 9.7 0.00 0.00 0.00 61 1014.7
20260901043826 26 160 6.4 9.7 0.00 0.00 0.00 61 1017.5
20260901043537 26 177 4.8 9.7 0.00 0.00 0.00 61 1014.6
20260901043324 26 173 4.8 9.7 0.00 0.00 0.00 61 1017.5
20260901043029 26 154 3.2 8.0 0.00 0.00 0.00 62 1014.5
20260901042821 26 154 3.2 4.8 0.00 0.00 0.00 61 1017.4
20260901042521 26 154 3.2 4.8 0.00 0.00 0.00 61 1014.5
20260901042339 26 154 4.8 4.8 0.00 0.00 0.00 61 1017.4
20260901042059 26 154 1.6 4.8 0.00 0.00 0.00 61 1014.5
20260901041830 26 154 1.6 3.2 0.00 0.00 0.00 61 1017.5
20260901041550 26 154 0.0 4.8 0.00 0.00 0.00 61 1014.5
20260901041329 26 154 1.6 4.8 0.00 0.00 0.00 61 1017.4
20260901041040 26 154 1.6 4.8 0.00 0.00 0.00 60 1014.5
20260901040826 26 154 1.6 3.2 0.00 0.00 0.00 60 1017.4
20260901040533 26 154 0.0 0.0 0.00 0.00 0.00 60 1014.5
20260901040323 26 154 0.0 0.0 0.00 0.00 0.00 60 1017.4
20260901040034 26 154 0.0 1.6 0.00 0.00 0.00 59 1014.3
20260901035822 26 154 0.0 3.2 0.00 0.00 0.00 59 1017.3
20260901035534 26 154 0.0 3.2 0.00 0.00 0.00 59 1014.5
20260901035320 26 154 0.0 3.2 0.00 0.00 0.00 59 1017.4
20260901035030 26 154 1.6 3.2 0.00 0.00 0.00 59 1014.5
20260901034839 27 154 3.2 3.2 0.00 0.00 0.00 60 1017.3
20260901034525 26 154 0.0 3.2 0.00 0.00 0.00 58 1014.4
20260901034330 27 154 0.0 3.2 0.00 0.00 0.00 58 1017.4
20260901034004 27 154 1.6 3.2 0.00 0.00 0.00 58 1014.5
20260901033829 27 154 1.6 3.2 0.00 0.00 0.00 57 1017.4
20260901033558 27 154 1.6 3.2 0.00 0.00 0.00 57 1014.4
20260901033329 27 154 3.2 3.2 0.00 0.00 0.00 57 1017.4
20260901033050 27 154 1.6 3.2 0.00 0.00 0.00 57 1014.4
20260901032829 27 154 3.2 3.2 0.00 0.00 0.00 57 1017.3
20260901032542 27 154 1.6 3.2 0.00 0.00 0.00 56 1014.5
20260901032329 27 154 3.2 3.2 0.00 0.00 0.00 56 1017.4
20260901032040 27 154 1.6 3.2 0.00 0.00 0.00 56 1014.4
20260901031829 27 154 3.2 4.8 0.00 0.00 0.00 56 1017.3
20260901031533 27 154 1.6 4.8 0.00 0.00 0.00 55 1014.4
20260901031329 27 154 1.6 4.8 0.00 0.00 0.00 55 1017.3
20260901031014 27 154 1.6 4.8 0.00 0.00 0.00 55 1014.4
20260901030830 28 154 3.2 4.8 0.00 0.00 0.00 55 1017.3
20260901030506 27 154 1.6 8.0 0.00 0.00 0.00 55 1014.4
20260901030330 28 154 3.2 8.0 0.00 0.00 0.00 54 1017.2
20260901030100 27 154 3.2 8.0 0.00 0.00 0.00 54 1014.2
20260901025830 28 154 4.8 6.4 0.00 0.00 0.00 54 1017.0
20260901025554 28 154 1.6 3.2 0.00 0.00 0.00 54 1014.1
20260901025329 28 154 3.2 3.2 0.00 0.00 0.00 54 1017.0
20260901025046 28 154 1.6 3.2 0.00 0.00 0.00 53 1014.0
20260901024829 28 154 1.6 3.2 0.00 0.00 0.00 53 1017.0
20260901024536 28 154 0.0 1.6 0.00 0.00 0.00 53 1013.9
20260901024329 28 154 0.0 1.6 0.00 0.00 0.00 52 1016.8
20260901024030 28 154 0.0 3.2 0.00 0.00 0.00 52 1013.8
20260901023847 28 154 0.0 3.2 0.00 0.00 0.00 52 1016.8
20260901023556 28 154 0.0 3.2 0.00 0.00 0.00 52 1013.8
20260901023325 29 154 1.6 3.2 0.00 0.00 0.00 52 1016.7
20260901023059 28 154 1.6 3.2 0.00 0.00 0.00 51 1013.8
20260901022824 29 154 1.6 3.2 0.00 0.00 0.00 51 1016.8
20260901022538 29 154 0.0 3.2 0.00 0.00 0.00 51 1013.8
20260901022323 29 154 1.6 3.2 0.00 0.00 0.00 51 1016.7
20260901022032 29 154 1.6 4.8 0.00 0.00 0.00 51 1013.7
20260901021842 29 154 3.2 4.8 0.00 0.00 0.00 51 1016.7
20260901021556 29 154 1.6 4.8 0.00 0.00 0.00 50 1013.6
20260901021319 30 154 1.6 4.8 0.00 0.00 0.00 50 1016.5
20260901021047 29 153 1.6 3.2 0.00 0.00 0.00 50 1013.6
20260901020816 30 154 3.2 3.2 0.00 0.00 0.00 50 1016.5
20260901020514 30 154 1.6 3.2 0.00 0.00 0.00 49 1013.4
20260901020315 30 154 1.6 3.2 0.00 0.00 0.00 49 1016.5
20260901020004 30 154 0.0 3.2 0.00 0.00 0.00 49 1013.4
20260901015852 30 154 1.6 3.2 0.00 0.00 0.00 49 1016.4
20260901015536 30 154 1.6 3.2 0.00 0.00 0.00 49 1013.3
20260901015332 30 154 1.6 3.2 0.00 0.00 0.00 49 1016.4
20260901015029 30 154 1.6 3.2 0.00 0.00 0.00 49 1013.3
20260901014829 30 154 1.6 3.2 0.00 0.00 0.00 49 1016.4
20260901014557 30 154 0.0 3.2 0.00 0.00 0.00 48 1013.2
20260901014350 30 154 0.0 3.2 0.00 0.00 0.00 48 1016.3
20260901014014 30 154 1.6 3.2 0.00 0.00 0.00 48 1013.2
20260901013829 31 154 1.6 3.2 0.00 0.00 0.00 48 1016.2
20260901013506 30 154 0.0 0.0 0.00 0.00 0.00 47 1013.1
20260901013329 31 154 0.0 0.0 0.00 0.00 0.00 47 1016.1
20260901013058 31 154 0.0 0.0 0.00 0.00 0.00 47 1013.1
20260901012829 31 154 0.0 0.0 0.00 0.00 0.00 47 1016.1
20260901012551 31 154 0.0 0.0 0.00 0.00 0.00 47 1013.0
20260901012329 31 153 0.0 0.0 0.00 0.00 0.00 46 1016.1
20260901012040 31 154 0.0 0.0 0.00 0.00 0.00 46 1013.1
20260901011829 31 154 0.0 0.0 0.00 0.00 0.00 46 1016.1
20260901011530 31 154 0.0 0.0 0.00 0.00 0.00 46 1013.1
20260901011342 31 154 0.0 0.0 0.00 0.00 0.00 46 1016.1
20260901011056 31 154 0.0 0.0 0.00 0.00 0.00 45 1013.1
20260901010820 32 152 0.0 0.0 0.00 0.00 0.00 45 1016.0
20260901010548 31 147 0.0 0.0 0.00 0.00 0.00 45 1013.0
20260901010339 32 147 0.0 0.0 0.00 0.00 0.00 45 1016.0
20260901010036 32 145 0.0 0.0 0.00 0.00 0.00 45 1013.0
20260901005831 32 147 0.0 0.0 0.00 0.00 0.00 44 1016.0
20260901005534 32 154 0.0 0.0 0.00 0.00 0.00 44 1013.0
20260901005328 32 139 0.0 0.0 0.00 0.00 0.00 44 1016.0
20260901005030 32 147 0.0 0.0 0.00 0.00 0.00 44 1012.9
20260901004825 32 150 0.0 0.0 0.00 0.00 0.00 43 1015.9
20260901004526 32 156 0.0 0.0 0.00 0.00 0.00 43 1012.9
20260901004322 32 149 0.0 0.0 0.00 0.00 0.00 43 1015.8
20260901004007 32 139 0.0 0.0 0.00 0.00 0.00 42 1012.9
20260901003840 33 116 0.0 0.0 0.00 0.00 0.00 42 1015.9
20260901003556 32 144 0.0 0.0 0.00 0.00 0.00 42 1013.0
20260901003332 33 156 0.0 0.0 0.00 0.00 0.00 42 1015.9
20260901003049 32 158 0.0 0.0 0.00 0.00 0.00 41 1012.9
20260901002829 33 160 0.0 0.0 0.00 0.00 0.00 41 1015.9
20260901002543 33 147 0.0 0.0 0.00 0.00 0.00 41 1012.9
20260901002326 33 160 0.0 0.0 0.00 0.00 0.00 41 1015.8
20260901002032 33 158 0.0 0.0 0.00 0.00 0.00 40 1012.8
20260901001824 33 144 0.0 0.0 0.00 0.00 0.00 40 1015.8
20260901001524 33 139 0.0 0.0 0.00 0.00 0.00 40 1012.7
20260901001321 33 119 0.0 0.0 0.00 0.00 0.00 40 1015.7
20260901001007 33 149 0.0 22.5 0.00 0.00 0.00 40 1012.7
20260901000818 33 119 0.0 22.5 0.00 0.00 0.00 40 1015.7
20260901000557 33 168 9.7 22.5 0.00 0.00 0.00 40 1012.7
20260901000317 33 152 11.3 17.7 0.00 0.00 0.00 40 1015.6
20260901000048 33 154 8.0 17.7 0.00 0.00 0.00 41 1012.6
20260831235815 33 131 9.7 17.7 0.00 0.00 0.00 40 1015.5
20260831235538 33 143 9.7 24.1 0.00 0.00 0.00 39 1012.6
20260831235332 34 135 12.9 24.1 0.00 0.00 0.00 39 1015.5
20260831235032 33 141 9.7 24.1 0.00 0.00 0.00 38 1012.5
20260831234830 34 137 16.1 24.1 0.00 0.00 0.00 38 1015.6
20260831234512 33 145 12.9 24.1 0.00 0.00 0.00 39 1012.6
20260831234349 34 129 16.1 24.1 0.00 0.00 0.00 38 1015.6
20260831234044 33 156 9.7 20.9 0.00 0.00 0.00 38 1012.6
20260831233825 34 146 12.9 19.3 0.00 0.00 0.00 38 1015.6
20260831233535 34 135 9.7 19.3 0.00 0.00 0.00 38 1012.7
20260831233322 34 141 11.3 19.3 0.00 0.00 0.00 38 1015.6
20260831233026 34 139 11.3 19.3 0.00 0.00 0.00 37 1012.6
20260831232820 34 153 9.7 19.3 0.00 0.00 0.00 37 1015.6
20260831232508 34 145 9.7 19.3 0.00 0.00 0.00 36 1012.6
20260831232317 34 136 9.7 19.3 0.00 0.00 0.00 37 1015.7
20260831232102 34 39 12.9 19.3 0.00 0.00 0.00 37 1012.7
20260831231814 34 136 8.0 19.3 0.00 0.00 0.00 37 1015.7
20260831231555 34 98 6.4 19.3 0.00 0.00 0.00 37 1012.7
20260831231331 34 166 11.3 19.3 0.00 0.00 0.00 37 1015.7
20260831231044 34 159 0.0 11.3 0.00 0.00 0.00 37 1012.7
20260831230829 35 142 0.0 11.3 0.00 0.00 0.00 38 1015.7
20260831230533 34 122 0.0 17.7 0.00 0.00 0.00 38 1012.6
20260831230325 35 125 6.4 19.3 0.00 0.00 0.00 37 1015.6
20260831230024 34 130 9.7 19.3 0.00 0.00 0.00 37 1012.7
20260831225820 35 94 9.7 19.3 0.00 0.00 0.00 37 1015.7
20260831225547 34 103 6.4 20.9 0.00 0.00 0.00 37 1012.7
20260831225318 35 137 9.7 20.9 0.00 0.00 0.00 37 1015.7
20260831225018 34 141 11.3 20.9 0.00 0.00 0.00 36 1012.8
20260831224815 35 132 9.7 19.3 0.00 0.00 0.00 36 1015.8
20260831224602 34 112 3.2 14.5 0.00 0.00 0.00 36 1012.8
20260831224354 35 145 0.0 0.0 0.00 0.00 0.00 36 1015.8
20260831224032 34 104 0.0 0.0 0.00 0.00 0.00 36 1012.9
20260831223830 35 152 0.0 0.0 0.00 0.00 0.00 35 1015.8
20260831223514 34 122 0.0 0.0 0.00 0.00 0.00 36 1012.8
20260831223328 35 140 0.0 0.0 0.00 0.00 0.00 36 1015.8
20260831223004 34 106 0.0 0.0 0.00 0.00 0.00 36 1012.9
20260831222825 34 158 0.0 0.0 0.00 0.00 0.00 36 1015.9
20260831222558 34 164 0.0 0.0 0.00 0.00 0.00 36 1012.8
20260831222322 34 174 0.0 0.0 0.00 0.00 0.00 36 1015.9
20260831222047 34 170 0.0 0.0 0.00 0.00 0.00 36 1013.0
20260831221819 34 166 0.0 0.0 0.00 0.00 0.00 36 1016.0
20260831221539 34 158 0.0 0.0 0.00 0.00 0.00 37 1013.0
20260831221316 34 193 0.0 0.0 0.00 0.00 0.00 36 1016.0
20260831221033 33 194 0.0 0.0 0.00 0.00 0.00 36 1013.0
20260831220813 34 163 0.0 0.0 0.00 0.00 0.00 36 1016.1
20260831220514 33 164 0.0 0.0 0.00 0.00 0.00 38 1013.1
20260831220331 34 161 0.0 0.0 0.00 0.00 0.00 37 1016.1
20260831220006 33 144 0.0 0.0 0.00 0.00 0.00 39 1013.2
20260831215851 34 145 0.0 0.0 0.00 0.00 0.00 39 1016.1
20260831215538 33 147 0.0 0.0 0.00 0.00 0.00 40 1013.2
20260831215330 34 170 0.0 0.0 0.00 0.00 0.00 39 1016.3
20260831215031 34 115 0.0 0.0 0.00 0.00 0.00 38 1013.3
20260831214826 34 156 0.0 0.0 0.00 0.00 0.00 37 1016.3
20260831214526 34 147 0.0 0.0 0.00 0.00 0.00 38 1013.3
20260831214322 34 133 0.0 0.0 0.00 0.00 0.00 38 1016.4
20260831214026 34 129 0.0 0.0 0.00 0.00 0.00 38 1013.4
20260831213822 34 149 0.0 0.0 0.00 0.00 0.00 38 1016.4
20260831213519 34 108 0.0 0.0 0.00 0.00 0.00 38 1013.4
20260831213319 34 149 0.0 0.0 0.00 0.00 0.00 38 1016.5
20260831213044 34 142 0.0 0.0 0.00 0.00 0.00 37 1013.4
20260831212815 34 147 0.0 0.0 0.00 0.00 0.00 38 1016.5
20260831212536 34 168 0.0 0.0 0.00 0.00 0.00 38 1013.5
20260831212313 34 159 0.0 0.0 0.00 0.00 0.00 38 1016.5
20260831212032 34 164 0.0 0.0 0.00 0.00 0.00 39 1013.5
20260831211813 34 131 0.0 0.0 0.00 0.00 0.00 39 1016.5
20260831211516 34 147 0.0 0.0 0.00 0.00 0.00 40 1013.5
20260831211329 34 164 0.0 0.0 0.00 0.00 0.00 39 1016.5
20260831211008 34 163 0.0 0.0 0.00 0.00 0.00 39 1013.5
20260831210827 34 143 0.0 0.0 0.00 0.00 0.00 40 1016.6
20260831210602 33 151 0.0 0.0 0.00 0.00 0.00 39 1013.7
20260831210325 34 106 0.0 0.0 0.00 0.00 0.00 38 1016.7
20260831210053 33 154 0.0 0.0 0.00 0.00 0.00 37 1013.7
20260831205841 34 150 0.0 0.0 0.00 0.00 0.00 37 1016.8
20260831205532 33 152 0.0 0.0 0.00 0.00 0.00 39 1013.8
20260831205338 33 179 0.0 0.0 0.00 0.00 0.00 40 1016.9
20260831205054 33 144 0.0 0.0 0.00 0.00 0.00 38 1014.0
20260831204814 33 112 0.0 0.0 0.00 0.00 0.00 39 1017.0
20260831204552 33 106 0.0 0.0 0.00 0.00 0.00 39 1014.0
20260831204352 33 159 0.0 0.0 0.00 0.00 0.00 39 1017.0
20260831204008 33 145 0.0 0.0 0.00 0.00 0.00 40 1014.1
20260831203827 33 150 0.0 0.0 0.00 0.00 0.00 40 1017.2
20260831203602 33 145 0.0 0.0 0.00 0.00 0.00 41 1014.2
20260831203326 33 147 0.0 0.0 0.00 0.00 0.00 42 1017.3
20260831203055 33 83 0.0 0.0 0.00 0.00 0.00 42 1014.3
20260831202844 33 95 0.0 0.0 0.00 0.00 0.00 42 1017.3
20260831202523 33 137 0.0 0.0 0.00 0.00 0.00 43 1014.4
20260831202319 33 135 0.0 0.0 0.00 0.00 0.00 43 1017.4
20260831202048 33 125 0.0 0.0 0.00 0.00 0.00 43 1014.4
20260831201817 33 144 0.0 0.0 0.00 0.00 0.00 43 1017.5
20260831201542 33 151 0.0 0.0 0.00 0.00 0.00 43 1014.5
20260831201318 33 149 0.0 0.0 0.00 0.00 0.00 43 1017.5
20260831201034 33 148 0.0 0.0 0.00 0.00 0.00 44 1014.5
20260831200837 33 126 0.0 0.0 0.00 0.00 0.00 44 1017.5
20260831200558 33 112 0.0 0.0 0.00 0.00 0.00 44 1014.6
20260831200354 33 157 0.0 0.0 0.00 0.00 0.00 43 1017.7
20260831200040 33 167 0.0 0.0 0.00 0.00 0.00 44 1014.6
20260831195831 33 140 0.0 0.0 0.00 0.00 0.00 44 1017.6
20260831195516 33 175 0.0 0.0 0.00 0.00 0.00 44 1014.7
20260831195330 33 181 0.0 0.0 0.00 0.00 0.00 45 1017.9
20260831195005 33 162 0.0 0.0 0.00 0.00 0.00 45 1014.9
20260831194830 33 158 0.0 0.0 0.00 0.00 0.00 44 1017.9
20260831194557 33 163 0.0 0.0 0.00 0.00 0.00 44 1014.9
20260831194329 33 133 0.0 0.0 0.00 0.00 0.00 44 1017.9
20260831194050 33 97 0.0 0.0 0.00 0.00 0.00 45 1014.9
20260831193848 33 139 0.0 0.0 0.00 0.00 0.00 45 1018.0
20260831193524 33 132 0.0 0.0 0.00 0.00 0.00 45 1015.0
20260831193325 33 120 0.0 0.0 0.00 0.00 0.00 46 1018.0
20260831193010 33 139 0.0 0.0 0.00 0.00 0.00 46 1015.0
20260831192844 33 107 0.0 0.0 0.00 0.00 0.00 46 1018.1
20260831192539 33 110 0.0 0.0 0.00 0.00 0.00 45 1015.0
20260831192321 33 127 0.0 0.0 0.00 0.00 0.00 46 1018.1
20260831192035 33 203 0.0 0.0 0.00 0.00 0.00 46 1015.1
20260831191821 33 178 0.0 0.0 0.00 0.00 0.00 46 1018.2
20260831191533 33 100 0.0 0.0 0.00 0.00 0.00 47 1015.0
20260831191319 33 142 0.0 0.0 0.00 0.00 0.00 46 1018.2
20260831191020 33 109 0.0 0.0 0.00 0.00 0.00 46 1014.9
20260831190837 33 159 0.0 0.0 0.00 0.00 0.00 45 1018.1
20260831190544 33 137 0.0 0.0 0.00 0.00 0.00 45 1015.1
20260831190350 33 89 0.0 0.0 0.00 0.00 0.00 46 1018.2
20260831190006 33 141 0.0 0.0 0.00 0.00 0.00 47 1015.1
20260831185845 33 174 0.0 0.0 0.00 0.00 0.00 47 1018.3
20260831185538 33 106 0.0 0.0 0.00 0.00 0.00 48 1015.2
20260831185342 33 143 0.0 0.0 0.00 0.00 0.00 48 1018.4
20260831185102 32 104 0.0 0.0 0.00 0.00 0.00 48 1015.3
20260831184817 33 135 0.0 0.0 0.00 0.00 0.00 48 1018.5
20260831184605 32 161 0.0 0.0 0.00 0.00 0.00 48 1015.4
20260831184314 33 143 0.0 0.0 0.00 0.00 0.00 48 1018.5
20260831184051 33 123 0.0 0.0 0.00 0.00 0.00 49 1015.4
20260831183832 33 147 0.0 0.0 0.00 0.00 0.00 49 1018.5
20260831183546 32 204 0.0 0.0 0.00 0.00 0.00 49 1015.4
20260831183329 33 160 0.0 0.0 0.00 0.00 0.00 48 1018.6
20260831183040 32 127 0.0 0.0 0.00 0.00 0.00 48 1015.6
20260831182826 33 164 0.0 0.0 0.00 0.00 0.00 48 1018.7
20260831182529 32 155 0.0 0.0 0.00 0.00 0.00 49 1015.6
20260831182324 33 137 0.0 0.0 0.00 0.00 0.00 48 1018.7
20260831182011 32 179 0.0 0.0 0.00 0.00 0.00 49 1015.7
20260831181822 33 164 0.0 0.0 0.00 0.00 0.00 51 1018.7
20260831181501 32 162 0.0 0.0 0.00 0.00 0.00 51 1015.7
20260831181320 33 137 0.0 0.0 0.00 0.00 0.00 50 1018.8
20260831181056 32 157 0.0 0.0 0.00 0.00 0.00 51 1015.8
20260831180817 32 151 0.0 0.0 0.00 0.00 0.00 52 1018.7
20260831180545 32 164 0.0 0.0 0.00 0.00 0.00 54 1015.7
20260831180315 32 182 0.0 0.0 0.00 0.00 0.00 54 1018.9
20260831180045 32 165 0.0 0.0 0.00 0.00 0.00 52 1015.9
20260831175832 32 139 0.0 0.0 0.00 0.00 0.00 52 1018.9
20260831175519 32 195 0.0 0.0 0.00 0.00 0.00 54 1016.0
20260831175330 32 162 0.0 0.0 0.00 0.00 0.00 54 1019.1
20260831175009 31 147 0.0 0.0 0.00 0.00 0.00 54 1016.1
20260831174829 32 137 0.0 0.0 0.00 0.00 0.00 54 1019.4
20260831174601 31 174 0.0 0.0 0.00 0.00 0.00 55 1016.3
20260831174325 32 161 0.0 0.0 0.00 0.00 0.00 54 1019.4
20260831174055 32 149 0.0 0.0 0.00 0.00 0.00 55 1016.3
20260831173822 32 89 0.0 0.0 0.00 0.00 0.00 55 1019.4
20260831173543 31 131 0.0 0.0 0.00 0.00 0.00 55 1016.5
20260831173319 31 128 0.0 0.0 0.00 0.00 0.00 55 1019.5
20260831173035 31 213 0.0 0.0 0.00 0.00 0.00 55 1016.5
20260831172816 31 183 0.0 0.0 0.00 0.00 0.00 55 1019.4
20260831172525 31 155 0.0 0.0 0.00 0.00 0.00 55 1016.5
20260831172333 31 154 0.0 0.0 0.00 0.00 0.00 55 1019.5
20260831172009 31 127 0.0 0.0 0.00 0.00 0.00 54 1016.6
20260831171829 31 129 0.0 0.0 0.00 0.00 0.00 54 1019.6
20260831171539 31 174 0.0 0.0 0.00 0.00 0.00 57 1016.5
20260831171324 31 152 0.0 0.0 0.00 0.00 0.00 56 1019.5
20260831171003 31 202 0.0 0.0 0.00 0.00 0.00 57 1016.6
20260831170821 31 153 0.0 0.0 0.00 0.00 0.00 57 1019.6
20260831170555 31 174 0.0 0.0 0.00 0.00 0.00 56 1016.6
20260831170318 31 131 0.0 0.0 0.00 0.00 0.00 57 1019.6
20260831170046 31 142 0.0 0.0 0.00 0.00 0.00 57 1016.6
20260831165815 31 168 0.0 0.0 0.00 0.00 0.00 58 1019.6
20260831165540 30 187 0.0 0.0 0.00 0.00 0.00 59 1016.6
20260831165332 31 193 0.0 0.0 0.00 0.00 0.00 59 1019.6
20260831165028 30 173 0.0 0.0 0.00 0.00 0.00 59 1016.7
20260831164831 30 189 0.0 0.0 0.00 0.00 0.00 59 1019.6
20260831164521 30 166 0.0 0.0 0.00 0.00 0.00 59 1016.7
20260831164330 30 168 0.0 0.0 0.00 0.00 0.00 59 1019.8
20260831164002 30 161 0.0 0.0 0.00 0.00 0.00 60 1016.8
20260831163827 30 161 0.0 0.0 0.00 0.00 0.00 60 1019.8
20260831163555 30 224 0.0 0.0 0.00 0.00 0.00 62 1016.8
20260831163325 30 176 0.0 0.0 0.00 0.00 0.00 63 1019.8
20260831163047 30 184 0.0 0.0 0.00 0.00 0.00 63 1016.7
20260831162822 30 213 0.0 0.0 0.00 0.00 0.00 63 1019.7
20260831162537 30 184 0.0 0.0 0.00 0.00 0.00 64 1016.7
20260831162321 30 211 0.0 0.0 0.00 0.00 0.00 64 1019.7
20260831162030 30 165 0.0 0.0 0.00 0.00 0.00 64 1016.8
20260831161839 30 209 0.0 0.0 0.00 0.00 0.00 64 1019.9
20260831161554 29 187 0.0 0.0 0.00 0.00 0.00 64 1016.8
20260831161315 30 156 0.0 0.0 0.00 0.00 0.00 64 1019.7
20260831161048 29 133 0.0 0.0 0.00 0.00 0.00 66 1016.7
20260831160853 29 201 0.0 0.0 0.00 0.00 0.00 66 1019.8
20260831160508 29 169 0.0 0.0 0.00 0.00 0.00 66 1016.7
20260831160330 29 107 0.0 0.0 0.00 0.00 0.00 65 1019.8
20260831155827 29 186 0.0 0.0 0.00 0.00 0.00 66 1019.7
20260831155553 29 169 0.0 0.0 0.00 0.00 0.00 66 1016.7
20260831155324 29 216 0.0 0.0 0.00 0.00 0.00 68 1019.8
20260831155041 28 177 0.0 0.0 0.00 0.00 0.00 68 1016.6
20260831154822 29 187 0.0 0.0 0.00 0.00 0.00 68 1019.8
20260831154535 28 201 0.0 0.0 0.00 0.00 0.00 68 1016.7
20260831154318 28 208 0.0 0.0 0.00 0.00 0.00 69 1019.6
20260831154028 28 135 0.0 0.0 0.00 0.00 0.00 70 1016.6
20260831153814 28 188 0.0 0.0 0.00 0.00 0.00 71 1019.6
20260831153513 28 185 0.0 0.0 0.00 0.00 0.00 71 1016.5
20260831153329 28 231 0.0 0.0 0.00 0.00 0.00 71 1019.5
20260831153005 28 173 0.0 0.0 0.00 0.00 0.00 71 1016.5
20260831152826 28 170 0.0 0.0 0.00 0.00 0.00 71 1019.4
20260831152559 28 189 0.0 0.0 0.00 0.00 0.00 71 1016.4
20260831152322 28 233 0.0 0.0 0.00 0.00 0.00 71 1019.4
20260831152054 28 218 0.0 0.0 0.00 0.00 0.00 72 1016.4
20260831151819 28 241 0.0 0.0 0.00 0.00 0.00 74 1019.4
20260831151553 27 231 0.0 0.0 0.00 0.00 0.00 74 1016.4
20260831151317 28 152 0.0 0.0 0.00 0.00 0.00 73 1019.4
20260831151037 27 166 0.0 0.0 0.00 0.00 0.00 73 1016.4
20260831150815 27 251 0.0 0.0 0.00 0.00 0.00 74 1019.3
20260831150528 27 163 0.0 0.0 0.00 0.00 0.00 75 1016.3